Weather in Shirokovskij

Russia / Perm Krai     58°50′27″N   57°46′58″E
temp.,
°C
wind,
m/s
gust,
m/s
humid.,
%
clouds,
%
prec.,
mm/h
press.,
hPa
HPBL,
m
28 february, sun
sun2823:00−20ese6139099 0.1 1014591
02:00−21ese51390100 0.0 1013514
05:00−21ese5139098 0.0 1013464
08:00−22e5139067 0.0 1013421
11:00−18e5118750 0.0 1013500
14:00−15e5108570 0.0 1012601
17:00−15e498874 0.1 1013545
20:00−19e399389 0.1 1014415
1 march, mon
mon123:00−20e299281 0.1 1016274
02:00−20ene129387 0.0 101722
05:00−22nne129490 0.0 101821
08:00−23nne119676 0.0 101920
11:00−16ene018881 0.0 1019230
14:00−11ssw118372 0.0 1017474
17:00−11w118586 0.0 1017515
20:00−17ssw1297100 0.0 101620
2 march, tue
tue223:00−19s229980 0.1 101521
02:00−20s2510090 0.0 1013108
05:00−21s3710095 0.1 1010182
08:00−19s4998100 0.0 1008323
11:00−17s51095100 0.1 1006377
14:00−14s51093100 0.4 1004459
17:00−13s51193100 0.9 1003529
20:00−13s41094100 0.6 1001587
3 march, wed
wed323:00−14s3994100 0.9 1001484
02:00−14s3896100 0.3 1000351
05:00−14s2796100 0.6 1000315
08:00−14sse2597100 0.6 999262
11:00−12sse2393100 0.9 998309
14:00−9ssw1290100 0.3 998402
17:00−8wsw1292100 0.8 998321
20:00−11wnw1197100 0.3 99821
4 march, thu
thu423:00−12nw1297100 0.4 99922
02:00−13wnw239895 0.1 99987
05:00−14wnw259797 0.1 1000120
08:00−16w229799 0.1 100126
11:00−12w259295 0.3 1001309
14:00−9w3690100 0.1 1001636
17:00−9wsw3690100 0.3 1000747
20:00−11ssw31096100 0.1 999432